SCP
0 0 0 0 0 0 0 0 0 0 0 0 0 0 0 0 0 0 0 0 0 0
0 0 0 0 0 0 0 0 0 0 0 0 0 0 0 0 0 0 0 0 0 0
0 0 0 0 0 0 0 0 0 0 0 0 0 0 0 0 0 0 0 0 0 0
0 0 0 0 0 0 0 0 0 0 0 0 0 0 0 0 0 0 0 0 0 0
0 0 0 0 0 0 0 0 0 0 0 0 0 0 0 0 0 0 0 0 0 0
0 0 0 0 0 0 0 0 0 0 0 0 0 0 0 0 0 0 0 0 0 0
0 0 0 0 0 0 0 0 0 0 0 0 0 0 0 0 0 0 0 0 0 0
0 0 0 0 0 0 0 0 0 0 0 0 0 0 0 0 0 0 0 0 0 0
0 0 0 0 0 0 0 0 0 0 0 0 0 0 0 0 0 0 0 0 0 0
0 0 0 0 0 0 0 0 0 0 0 0 0 0 0 0 0 0 0 0 0 0
0 0 0 0 0 0 0 0 0 0 0 0 0 0 0 0 0 0 0 0 0 0
0 0 0 0 0 0 0 0 0 0 0 0 0 0 0 0 0 0 0 0 0 0
0 0 0 0 0 0 0 0 0 0 0 0 0 0 0 0 0 0 0 0 0 0
0 0 0 0 0 0 0 0 0 0 0 0 0 0 0 0 0 0 0 0 0 0
Wind_Speed_500mb
52 55 57 61 63 64 61 70 60 55 52 48 41 37 36 26 27 30 28 37 48 45
50 51 55 52 62 55 59 57 52 52 44 40 43 37 34 36 40 43 44 41 47 47
41 44 47 51 53 50 50 53 47 45 47 49 42 40 40 38 42 42 39 44 45 47
40 43 47 52 50 47 46 45 47 55 54 46 37 42 45 48 47 47 48 49 49 43
34 38 42 42 42 41 43 47 57 51 43 41 41 43 43 40 42 43 45 46 47 44
33 36 36 38 39 38 41 51 52 44 40 39 42 44 46 42 39 39 39 37 37 39
33 34 35 38 41 44 49 53 47 43 42 42 42 42 40 40 41 38 36 34 33 35
39 41 40 42 46 48 51 51 46 46 46 41 42 42 42 40 41 37 37 36 36 35
48 52 50 50 51 50 54 57 50 50 46 44 47 45 43 44 42 41 39 37 37 33
51 62 57 51 40 50 60 51 47 48 50 52 53 52 51 48 45 43 39 35 32 30
46 67 66 51 56 51 60 60 59 61 62 61 58 57 56 52 46 40 35 33 31 30
40 43 63 75 65 61 72 74 73 64 69 64 64 63 64 57 52 47 42 38 37 33
49 55 63 70 80 69 70 65 69 72 77 78 71 71 71 64 58 53 48 43 42 36
61 50 49 65 90 74 77 89 87 93 88 84 79 80 77 70 63 57 51 48 43 40
Wind_Direction_500mb
252 250 247 255 249 253 250 254 242 238 237 237 219 204 187 197 189 214 216 201 219 216
249 256 252 258 253 261 245 246 245 241 228 212 189 198 199 209 228 226 204 207 216 224
253 257 259 258 258 252 254 244 238 227 206 192 200 214 222 217 212 211 205 208 217 211
251 253 253 251 246 245 241 230 222 195 192 206 216 210 208 208 206 208 209 209 212 215
255 258 256 251 249 237 223 210 195 196 211 217 210 205 203 205 203 202 202 202 203 205
271 257 252 251 245 231 218 199 198 211 216 211 202 197 194 196 197 191 192 193 195 200
283 273 257 243 232 223 207 206 215 216 208 208 204 202 198 195 200 192 193 193 200 205
285 274 258 241 227 219 219 223 220 205 207 204 211 211 206 200 199 192 194 195 203 207
269 263 256 240 224 224 227 223 215 209 208 208 215 214 210 206 201 197 198 201 202 204
277 255 247 237 229 233 228 221 211 215 220 221 215 212 211 210 205 204 193 196 206 209
280 255 236 219 223 224 227 219 219 221 221 220 214 213 214 209 207 199 196 201 210 216
280 267 252 233 220 227 224 219 219 222 230 224 216 214 213 206 201 200 199 201 210 210
287 275 260 249 235 227 230 229 232 231 230 225 216 213 212 209 206 203 202 204 208 206
275 280 269 255 244 231 245 232 217 229 227 222 215 215 213 212 212 211 206 205 203 206
Wind_Speed_850mb
52 55 57 61 63 64 61 70 60 55 52 48 41 37 36 26 27 30 28 37 48 45
50 51 55 52 62 55 59 57 52 52 44 40 43 37 34 36 40 43 44 41 47 47
41 44 47 51 53 50 50 53 47 45 47 49 42 40 40 38 42 42 39 44 45 47
40 43 47 52 50 47 46 45 47 55 54 46 37 42 45 48 47 47 48 49 49 43
34 38 42 42 42 41 43 47 57 51 43 41 41 43 43 40 42 43 45 46 47 44
33 36 36 38 39 38 41 51 52 44 40 39 42 44 46 42 39 39 39 37 37 39
33 34 35 38 41 44 49 53 47 43 42 42 42 42 40 40 41 38 36 34 33 35
39 41 40 42 46 48 51 51 46 46 46 41 42 42 42 40 41 37 37 36 36 35
48 52 50 50 51 50 54 57 50 50 46 44 47 45 43 44 42 41 39 37 37 33
51 62 57 51 40 50 60 51 47 48 50 52 53 52 51 48 45 43 39 35 32 30
46 67 66 51 56 51 60 60 59 61 62 61 58 57 56 52 46 40 35 33 31 30
40 43 63 75 65 61 72 74 73 64 69 64 64 63 64 57 52 47 42 38 37 33
49 55 63 70 80 69 70 65 69 72 77 78 71 71 71 64 58 53 48 43 42 36
61 50 49 65 90 74 77 89 87 93 88 84 79 80 77 70 63 57 51 48 43 40
Wind_Direction_850mb
252 250 247 255 249 253 250 254 242 238 237 237 219 204 187 197 189 214 216 201 219 216
249 256 252 258 253 261 245 246 245 241 228 212 189 198 199 209 228 226 204 207 216 224
253 257 259 258 258 252 254 244 238 227 206 192 200 214 222 217 212 211 205 208 217 211
251 253 253 251 246 245 241 230 222 195 192 206 216 210 208 208 206 208 209 209 212 215
255 258 256 251 249 237 223 210 195 196 211 217 210 205 203 205 203 202 202 202 203 205
271 257 252 251 245 231 218 199 198 211 216 211 202 197 194 196 197 191 192 193 195 200
283 273 257 243 232 223 207 206 215 216 208 208 204 202 198 195 200 192 193 193 200 205
285 274 258 241 227 219 219 223 220 205 207 204 211 211 206 200 199 192 194 195 203 207
269 263 256 240 224 224 227 223 215 209 208 208 215 214 210 206 201 197 198 201 202 204
277 255 247 237 229 233 228 221 211 215 220 221 215 212 211 210 205 204 193 196 206 209
280 255 236 219 223 224 227 219 219 221 221 220 214 213 214 209 207 199 196 201 210 216
280 267 252 233 220 227 224 219 219 222 230 224 216 214 213 206 201 200 199 201 210 210
287 275 260 249 235 227 230 229 232 231 230 225 216 213 212 209 206 203 202 204 208 206
275 280 269 255 244 231 245 232 217 229 227 222 215 215 213 212 212 211 206 205 203 206